Tracking 19969 objects as of 12-Nov-2019
Live streaming from Space Station
objects crossing your sky now
Track the group of recently launched Starlink satellites

COSMOS 1275 DEB

Track COSMOS 1275 DEB now!
10-day predictions


NORAD ID: 13020
Int'l Code: 1981-053ES
Perigee: 895.7 km
Apogee: 1,070.2 km
Inclination: 82.7 °
Period: 104.6 minutes
Semi major axis: 7353 km
RCS: 0.0175 m2 (small)
Launch date: June 4, 1981
Source: Commonwealth of Independent States (former USSR) (CIS)
Launch site: PLESETSK MISSILE AND SPACE COMPLEX (PKMTR)

Note: This is SATELLITE DEBRIS
aabbcc
Your satellite tracking list
Your tracking list is empty




NASA's NSSDC Master Catalog

Two Line Element Set (TLE):
1 13020U 81053ES  19315.14711097  .00000202  00000-0  18128-3 0  9999
2 13020  82.6900 279.3627 0118681  34.4988  92.7028 13.76650048898823
Source of the keplerian elements: AFSPC